Location: Banksville Park
(38.5557°N, 75.1182°W)
Time: 05:39:55
(UTC+00:00)

CENTAUR R/B - Pass Details

Date: 22 January 2021
Orbit: 742 x 1446 km, 63.5° (Epoch: 01 March)

Event Time Altitude Azimuth Distance (km) Brightness Sun altitude
Rises 10:57:52 0° 196° (SSW) 3,282 5.3 -14.7°
Reaches altitude 10° 11:00:11 10° 191° (S) 2,417 4.6 -14.3°
Maximum altitude 11:05:34 53° 116° (ESE) 1,111 3.2 -13.3°
Drops below altitude 10° 11:11:55 10° 41° (NE) 2,844 5.3 -12.1°
Sets 11:14:50 0° 37° (NE) 3,916 6.0 -11.5°
